Regional Weather Roundup
Issued by NWS

Home | Current Version | Previous Version | Graphics & Text | Print | Product List | Glossary On
Versions: 1 2 3 4 5 6 7 8 9 10 11 12 13 14 15 16 17 18 19 20 21 22 23 24 25 26 27 28 29 30 31 32 33 34 35 36 37 38 39 40 41 42 43 44 45 46 47 48 49 50
000
ASUS43 KMPX 260901
RWRMN
WEATHER ROUNDUP FOR MINNESOTA
NATIONAL WEATHER SERVICE TWIN CITIES/CHANHASSEN MN
300 AM CST MON JAN 26 2015


NOTE: "FAIR" INDICATES FEW OR NO CLOUDS BELOW 12,000 FEET WITH NO
SIGNIFICANT WEATHER AND/OR OBSTRUCTIONS TO VISIBILITY. N/A MEANS
CURRENT SKY AND/OR WEATHER CONDITIONS ARE NOT AVAILABLE.

MNZ060>063-068>070-261000-
   Twin Cities Metro

CITY           SKY/WX    TMP DP  RH WIND       PRES   REMARKS
TWIN CITIES    CLOUDY    24  18  77 SE9       29.86F WCI  14
ST PAUL        CLOUDY    24  19  81 S8        29.89F WCI  15
CRYSTAL        CLOUDY    25  19  78 S10       29.83F WCI  15
BLAINE         CLOUDY    27  19  74 SE9       29.83F WCI  17
LAKEVILLE      CLOUDY    23  19  86 S8        29.87F WCI  14
EDEN PRAIRIE   CLOUDY    25  20  81 S15       29.81F WCI  13
SOUTH ST PAUL  CLOUDY    24  20  83 S5        29.88F WCI  19
LAKE ELMO      FLURRIES  23  19  86 S8        29.88F WCI  14
$$
MNZ001>005-007-008-013>017-022>024-027-028-261000-
   Northwest Minnesota

CITY           SKY/WX    TMP DP  RH WIND       PRES   REMARKS
BEMIDJI        CLOUDY    26  22  84 SW9       29.62F WCI  17
HALLOCK        PTCLDY    25  21  86 SW5       29.58S WCI  19
ROSEAU         CLOUDY    30  25  80 SW13      29.56S WCI  20
WARROAD        CLOUDY    28  25  86 SW12      29.55F WCI  18
THIEF RVR FALL MOCLDY    27  27 100 SW12      29.60F WCI  16
CROOKSTON      CLEAR     27  27 100 SW9       29.63S WCI  17
FOSSTON        MOCLDY    27  25  93 S13       29.62F WCI  16
DETROIT LAKES  CLOUDY    32  28  86 SW9       29.66R WCI  24
MOORHEAD       MOCLDY    30  30 100 S9        29.68F WCI  22
PARK RAPIDS    CLOUDY    27  22  81 S14       29.64F WCI  16
MAHNOMEN       CLOUDY    29  27  91 SW17      29.64F WCI  17
$$
MNZ006-009>011-018-025>026-261000-
   North Central Minnesota

CITY           SKY/WX    TMP DP  RH WIND       PRES   REMARKS
BAUDETTE       CLOUDY    26  19  74 S12       29.55F WCI  16
FLAG ISLAND    CLOUDY    23  21  93 S10       29.53F WCI  12
INTL FALLS     FLURRIES  22  18  85 VRB6      29.60F WCI  14
WASKISH        CLOUDY    27  21  80 S6        29.58F WCI  20
BIG FORK       CLOUDY    25  19  80 S12       29.63F WCI  14
LONGVILLE      CLOUDY    25  21  86 S9        29.68F WCI  15
GRAND RAPIDS   CLOUDY    21  18  86 S12G18    29.67F WCI   9
CRANE LAKE     SNOW      18  18 100 SE6       29.68F VSB 1/2 WCI   9
ORR            LGT SNOW  19  16  86 SE7       29.63F WCI  10
COOK           LGT SNOW  19  18  93 SE8       29.68F VSB 1   WCI   9
WALKER         CLOUDY    25  20  82 S8        29.65F WCI  16
$$
MNZ012-019>021-037-261000-
   Northeast Minnesota

CITY           SKY/WX    TMP DP  RH WIND       PRES   REMARKS
DULUTH         FLURRIES  20  12  71 S7        29.76F WCI  11
ELY            LGT SNOW  18  16  93 S8        29.72F WCI   7
HIBBING        SNOW      21  16  81 SE8       29.71F VSB 1/2 WCI  11
EVELETH        LGT SNOW  21  18  86 S7        29.74F VSB 1   WCI  13
DULUTH HARBOR  FLURRIES  23  14  68 S10       29.82F WCI  12
TWO HARBORS    FLURRIES  23  16  74 SW5       29.78F WCI  17
SILVER BAY     LGT SNOW  19  18  93 CALM      29.78F
GRAND MARAIS     N/A     24  20  84 SW17      29.84F WCI  11
G MARAIS ARPRT LGT SNOW  16  10  79 S7        29.76F WCI   6
$$
MNZ029>031-032-039>041-046>048-054>057-064-261000-
   West Central Minnesota

CITY           SKY/WX    TMP DP  RH WIND       PRES   REMARKS
FERGUS FALLS   PTCLDY    30  28  93 SW14      29.72F WCI  20
WHEATON        MOCLDY    30  28  93 SW13G18   29.74R WCI  20
MORRIS         PTCLDY    30  30 100 S14G21    29.69F WCI  20
ALEXANDRIA     CLOUDY    31  28  89 SW18G26   29.68F WCI  19
ELBOW LAKE     CLOUDY    30  28  95 S16       29.70R WCI  18
WADENA         CLOUDY    27  25  93 S9        29.65F WCI  17
GLENWOOD       MOCLDY    30  28  93 S18G24    29.70F WCI  18
APPLETON       MOCLDY    34  30  86 S15       29.72F WCI  24
BENSON         CLOUDY    32  28  86 SW16      29.72F WCI  21
ORTONVILLE     PTCLDY    34  30  86 S13       29.70F WCI  25
MADISON        MOCLDY    37  36  93 S16       29.75F
WILLMAR        FAIR      32  30  93 SW9G17    29.77F WCI  24
$$
MNZ033>034-036-042>043-049>051-058-059-261000-
   Central Minnesota

CITY           SKY/WX    TMP DP  RH WIND       PRES   REMARKS
ST CLOUD       CLOUDY    25  22  88 S12       29.77F WCI  14
SAUK CENTRE    CLOUDY    29  28  94 S13       29.70F WCI  19
PAYNESVILLE    CLOUDY    27  27  99 SE12G20   29.75R WCI  16
AITKIN         LGT SNOW  27  21  80 S7        29.72S WCI  19
PINE RIVER     CLOUDY    27  21  80 S10       29.71F WCI  17
BRAINERD       CLOUDY    25  21  85 S12       29.72F WCI  14
STAPLES        CLOUDY    27  23  86 S10       29.69F WCI  17
LONG PRAIRIE   CLOUDY    28  28 100 S14       29.70F WCI  17
LITTLE FALLS   CLOUDY    27  23  86 S9        29.73F WCI  17
LITCHFIELD     CLOUDY    28  28 100 S6        29.76F WCI  22
BUFFALO        LGT SNOW  25  22  86 S5        29.83F WCI  20
MAPLE LAKE     LGT SNOW  27  25  93 S6        29.81F WCI  20
$$
MNZ037-044-045-052-053-261000-
   East Central Minnesota

CITY           SKY/WX    TMP DP  RH WIND       PRES   REMARKS
PRINCETON      CLOUDY    25  19  80 S10       29.79F WCI  15
MORA           CLOUDY    23  16  74 S8        29.82F WCI  14
CAMBRIDGE      CLOUDY    25  16  68 SE12      29.78F WCI  14
RUSH CITY      CLOUDY    22  17  81 S10       29.82F WCI  11
MOOSE LAKE     LGT SNOW  21  18  86 S8        29.75F WCI  12
HINCKLEY       CLOUDY    23  19  86 S8        29.81F WCI  14
CLOQUET        FLURRIES  21  16  79 S8        29.75F WCI  12
MCGREGOR       CLOUDY    25  21  86 S8        29.75S WCI  16
$$
MNZ071>073-080-081-089-090-097-098-261000-
   Southwest Minnesota

CITY           SKY/WX    TMP DP  RH WIND       PRES   REMARKS
MONTEVIDEO     MOCLDY    32  32 100 SW15      29.78F WCI  22
GRANITE FALLS  MOCLDY    32  30  94 S13       29.81F WCI  22
CANBY          CLOUDY    34  32  91 S13       29.79F WCI  25
MARSHALL       CLOUDY    34  28  80 SW18G24   29.81F WCI  23
REDWOOD FALLS  CLOUDY    33  30  88 S17       29.81F WCI  22
OLIVIA         CLOUDY    30  30 100 S15       29.79F WCI  19
PIPESTONE      MOCLDY    30  30 100 SW14      29.82F FOG     WCI  20
WINDOM         CLOUDY    32  30  93 S7        29.89R WCI  26
WORTHINGTON    CLOUDY    32  28  86 SW14      29.89R WCI  22
JACKSON        CLOUDY    32  30  93 S9        29.89S WCI  24
TRACY          CLOUDY    33  32  95 SW20      29.81F WCI  21
SLAYTON        CLOUDY    32  31  96 S14       29.85F WCI  22
$$
MNZ065>067-074>077-082>085-091>093-261000-
   South Central Minnesota

CITY           SKY/WX    TMP DP  RH WIND       PRES   REMARKS
MANKATO        CLOUDY    28  25  86 S9        29.90S WCI  20
NEW ULM        CLOUDY    30  28  93 S12       29.85F WCI  21
ST JAMES       CLOUDY    34  30  86 S7        29.92R WCI  28
FAIRMONT       CLOUDY    30  27  86 SW9       29.92R WCI  22
GLENCOE        CLOUDY    29  28  94 S12G17    29.79F WCI  19
FARIBAULT      CLOUDY    25  21  86 S5        29.92R WCI  19
OWATONNA       CLOUDY    27  21  80 S8        29.90R WCI  18
WASECA         CLOUDY    28  25  86 S12       29.91S WCI  18
ALBERT LEA     CLOUDY    27  25  93 S8        29.91R WCI  18
$$
MNZ078>079-086>088-094>096-261000-
   Southeast Minnesota

CITY           SKY/WX    TMP DP  RH WIND       PRES   REMARKS
ROCHESTER      CLOUDY    23  19  85 S10       29.91F WCI  12
RED WING       CLOUDY    23  19  86 CALM      29.91F
STANTON        CLOUDY    26  21  83 S8        29.89S WCI  17
DODGE CENTER   CLOUDY    25  21  86 SW8       29.90F WCI  16
WINONA         CLOUDY    23  18  80 SE5       29.95F WCI  17
AUSTIN         CLOUDY    25  21  86 SW7       29.92S WCI  17
PRESTON        CLOUDY    24  19  84 S8        29.90F WCI  14
$$
ABBREVIATIONS USED IN REMARKS
   TC - TEMPERATURES IN CELSIUS
  WCI - WIND CHILL INDEX
   HX - HEAT INDEX
  VSB - VISIBILITY
$$


USA.gov is the U.S. government's official web portal to all federal, state and local government web resources and services.